H1 CPF 2 NER 2022 3 21 9 080 01 glonass106 H2 0705201 9106 32275 2022 3 21 0 0 0 2022 3 24 23 45 0 900 1 1 0 0 0 1 H9 10 0 59659 0.00000 0 -1784055.527 -10655356.651 23106671.874 10 0 59659 900.00000 0 1061355.672 -10279377.860 23320833.931 10 0 59659 1800.00000 0 3925681.972 -10123004.200 23082109.483 10 0 59659 2700.00000 0 6736678.400 -10186347.191 22395147.472 10 0 59659 3600.00000 0 9423730.234 -10456799.318 21273294.572 10 0 59659 4500.00000 0 11920553.561 -10909617.031 19738336.526 10 0 59659 5400.00000 0 14167719.504 -11509030.773 17820076.606 10 0 59659 6300.00000 0 16114898.066 -12209835.338 15555758.990 10 0 59659 7200.00000 0 17722728.888 -12959393.631 12989347.870 10 0 59659 8100.00000 0 18964241.773 -13699969.541 10170675.799 10 0 59659 9000.00000 0 19825768.392 -14371291.533 7154477.415 10 0 59659 9900.00000 0 20307307.793 -14913238.848 3999327.139 10 0 59659 10800.00000 0 20422331.172 -15268536.696 766501.360 10 0 59659 11700.00000 0 20197034.794 -15385346.306 -2481212.701 10 0 59659 12600.00000 0 19669073.198 -15219639.968 -5680737.948 10 0 59659 13500.00000 0 18885826.670 -14737260.101 -8769934.174 10 0 59659 14400.00000 0 17902276.663 -13915574.756 -11688806.389 10 0 59659 15300.00000 0 16778579.219 -12744658.920 -14380670.846 10 0 59659 16200.00000 0 15577439.116 -11227951.004 -16793255.911 10 0 59659 17100.00000 0 14361395.629 -9382355.963 -18879716.349 10 0 59659 18000.00000 0 13190134.271 -7237789.699 -20599541.381 10 0 59659 18900.00000 0 12117937.649 -4836182.845 -21919339.207 10 0 59659 19800.00000 0 11191382.351 -2229984.520 -22813483.189 10 0 59659 20700.00000 0 10447378.382 519772.503 -23264607.534 10 0 59659 21600.00000 0 9911633.023 3345765.681 -23263943.348 10 0 59659 22500.00000 0 9597603.234 6176941.257 -22811488.795 10 0 59659 23400.00000 0 9505980.183 8941232.010 -21916010.213 10 0 59659 24300.00000 0 9624727.246 11568322.265 -20594874.094 10 0 59659 25200.00000 0 9929669.684 13992346.086 -18873712.888 10 0 59659 26100.00000 0 10385611.137 16154407.137 -16785930.716 10 0 59659 27000.00000 0 10947929.893 18004816.016 -14372058.048 10 0 59659 27900.00000 0 11564587.756 19504952.392 -11678967.296 10 0 59659 28800.00000 0 12178466.746 20628674.650 -8758964.168 10 0 59659 29700.00000 0 12729934.935 21363218.612 -5668772.090 10 0 59659 30600.00000 0 13159532.802 21709548.201 -2468429.303 10 0 59659 31500.00000 0 13410666.153 21682143.787 779879.715 10 0 59659 32400.00000 0 13432191.238 21308237.771 4013035.527 10 0 59659 33300.00000 0 13180782.035 20626530.182 7168213.678 10 0 59659 34200.00000 0 12622978.877 19685439.048 10184108.795 10 0 59659 35100.00000 0 11736831.016 18540959.956 13002128.512 10 0 59659 36000.00000 0 10513062.876 17254225.595 15567533.616 10 0 59659 36900.00000 0 8955713.990 15888868.644 17830501.914 10 0 59659 37800.00000 0 7082224.759 14508299.402 19747095.105 10 0 59659 38700.00000 0 4922963.474 13173012.866 21280110.097 10 0 59659 39600.00000 0 2520213.604 11938038.444 22399798.488 10 0 59659 40500.00000 0 -73337.266 10850639.186 23084440.799 10 0 59659 41400.00000 0 -2796544.709 9948356.615 23320764.830 10 0 59659 42300.00000 0 -5582110.639 9257482.655 23104200.524 10 0 59659 43200.00000 0 -8359147.499 8792022.037 22438966.785 10 0 59659 44100.00000 0 -11055897.760 8553188.015 21337988.791 10 0 59659 45000.00000 0 -13602496.473 8529451.929 19822647.419 10 0 59659 45900.00000 0 -15933662.898 8697143.962 17922365.484 10 0 59659 46800.00000 0 -17991210.040 9021579.402 15674038.444 10 0 59659 47700.00000 0 -19726268.236 9458662.730 13121320.240 10 0 59659 48600.00000 0 -21101130.745 9956901.686 10313777.677 10 0 59659 49500.00000 0 -22090644.929 10459746.246 7305929.337 10 0 59659 50400.00000 0 -22683091.335 10908153.577 4156187.510 10 0 59659 51300.00000 0 -22880514.371 11243270.349 925723.580 10 0 59659 52200.00000 0 -22698491.377 11409118.759 -2322721.038 10 0 59659 53100.00000 0 -22165350.128 11355172.173 -5526054.952 10 0 59659 54000.00000 0 -21320868.279 11038710.931 -8622063.829 10 0 59659 54900.00000 0 -20214510.050 10426858.069 -11550620.205 10 0 59659 55800.00000 0 -18903274.831 9498208.271 -14254852.107 10 0 59659 56700.00000 0 -17449248.657 8243980.454 -16682247.626 10 0 59659 57600.00000 0 -15916961.804 6668644.494 -18785673.907 10 0 59659 58500.00000 0 -14370663.732 4789994.733 -20524290.817 10 0 59659 59400.00000 0 -12871629.821 2638666.130 -21864341.886 10 0 59659 60300.00000 0 -11475612.676 257112.145 -22779807.563 10 0 59659 61200.00000 0 -10230544.579 -2301914.015 -23252908.503 10 0 59659 62100.00000 0 -9174586.835 -4977312.606 -23274449.589 10 0 59659 63000.00000 0 -8334607.141 -7701944.815 -22843998.305 10 0 59659 63900.00000 0 -7725148.215 -10405199.448 -21969894.127 10 0 59659 64800.00000 0 -7347930.228 -13015713.129 -20669088.707 10 0 59659 65700.00000 0 -7191907.416 -15464131.762 -18966819.681 10 0 59659 66600.00000 0 -7233875.992 -17685799.043 -16896124.024 10 0 59659 67500.00000 0 -7439607.454 -19623260.709 -14497199.865 10 0 59659 68400.00000 0 -7765459.247 -21228480.619 -11816628.602 10 0 59659 69300.00000 0 -8160394.635 -22464676.446 -8906471.993 10 0 59659 70200.00000 0 -8568326.255 -23307698.561 -5823261.438 10 0 59659 71100.00000 0 -8930683.985 -23746894.630 -2626898.918 10 0 59659 72000.00000 0 -9189098.112 -23785423.900 620508.844 10 0 59659 72900.00000 0 -9288083.741 -23440008.358 3855860.068 10 0 59659 73800.00000 0 -9177612.157 -22740131.600 7016287.501 10 0 59659 74700.00000 0 -8815459.618 -21726719.607 10040383.332 10 0 59659 75600.00000 0 -8169233.419 -20450359.490 12869395.164 10 0 59659 76500.00000 0 -7217988.707 -18969131.644 15448369.339 10 0 59659 77400.00000 0 -5953366.990 -17346147.056 17727219.055 10 0 59659 78300.00000 0 -4380207.397 -15646893.622 19661696.494 10 0 59659 79200.00000 0 -2516604.045 -13936503.154 21214250.244 10 0 59659 80100.00000 0 -393406.182 -12277053.785 22354751.641 10 0 59659 81000.00000 0 1946818.938 -10725020.639 23061076.452 10 0 59659 81900.00000 0 4451318.127 -9328981.114 23319531.146 10 0 59659 82800.00000 0 7059116.240 -8127670.229 23125115.930 10 0 59659 83700.00000 0 9703331.228 -7148466.641 22481619.903 10 0 59659 84600.00000 0 12313744.846 -6406371.817 21401546.646 10 0 59659 85500.00000 0 14819522.847 -5903524.223 19905871.776 10 0 59660 0.00000 0 17151972.118 -5629268.024 18023637.140 10 0 59660 900.00000 0 19247221.945 -5560772.500 15791388.137 10 0 59660 1800.00000 0 21048715.147 -5664175.800 13252467.300 10 0 59660 2700.00000 0 22509409.916 -5896203.811 10456174.016 10 0 59660 3600.00000 0 23593597.653 -6206195.882 7456808.782 10 0 59660 4500.00000 0 24278262.338 -6538451.303 4312619.358 10 0 59660 5400.00000 0 24553924.748 -6834797.059 1084669.396 10 0 59660 6300.00000 0 24424936.368 -7037267.904 -2164348.484 10 0 59660 7200.00000 0 23909210.848 -7090784.869 -5371331.751 10 0 59660 8100.00000 0 23037404.817 -6945718.426 -8473995.162 10 0 59660 9000.00000 0 21851582.633 -6560227.145 -11412081.913 10 0 59660 9900.00000 0 20403421.662 -5902272.366 -14128534.782 10 0 59660 10800.00000 0 18752033.887 -4951223.080 -16570604.329 10 0 59660 11700.00000 0 16961495.430 -3698982.342 -18690872.548 10 0 59660 12600.00000 0 15098187.861 -2150586.939 -20448172.149 10 0 59660 13500.00000 0 13228062.737 -324254.007 -21808383.890 10 0 59660 14400.00000 0 11413943.756 1749128.452 -22745096.897 10 0 59660 15300.00000 0 9712979.111 4027046.962 -23240119.561 10 0 59660 16200.00000 0 8174350.064 6456901.395 -23283831.506 10 0 59660 17100.00000 0 6837330.856 8977974.239 -22875370.163 10 0 59660 18000.00000 0 5729780.376 11523749.293 -22022648.425 10 0 59660 18900.00000 0 4867127.822 14024484.326 -20742203.039 10 0 59660 19800.00000 0 4251894.023 16409931.509 -19058876.394 10 0 59660 20700.00000 0 3873767.757 18612093.014 -17005337.514 10 0 59660 21600.00000 0 3710233.123 20567897.572 -14621451.004 10 0 59660 22500.00000 0 3727720.992 22221686.770 -11953505.667 10 0 59660 23400.00000 0 3883235.529 23527407.409 -9053317.336 10 0 59660 24300.00000 0 4126386.638 24450418.426 -5977223.011 10 0 59660 25200.00000 0 4401742.012 24968836.745 -2784985.677 10 0 59660 26100.00000 0 4651398.801 25074365.636 461368.729 10 0 59660 27000.00000 0 4817665.489 24772570.874 3698759.343 10 0 59660 27900.00000 0 4845739.776 24082593.268 6864279.481 10 0 59660 28800.00000 0 4686268.385 23036309.809 9896422.306 10 0 59660 29700.00000 0 4297679.683 21676979.068 12736278.727 10 0 59660 30600.00000 0 3648189.643 20057428.083 15328683.834 10 0 59660 31500.00000 0 2717395.581 18237857.318 17623289.205 10 0 59660 32400.00000 0 1497389.582 16283356.133 19575540.236 10 0 59660 33300.00000 0 -6656.189 14261233.131 21147539.627 10 0 59660 34200.00000 0 -1776457.769 12238273.313 22308780.545 10 0 59660 35100.00000 0 -3781143.548 10278036.623 23036735.718 10 0 59660 36000.00000 0 -5978313.335 8438310.426 23317291.549 10 0 59660 36900.00000 0 -8315589.002 6768821.800 23145019.306 10 0 59660 37800.00000 0 -10732592.953 5309304.374 22523278.534 10 0 59660 38700.00000 0 -13163272.916 4087999.474 21464150.923 10 0 59660 39600.00000 0 -15538476.973 3120653.248 19988205.935 10 0 59660 40500.00000 0 -17788672.395 2410050.578 18124102.620 10 0 59660 41400.00000 0 -19846695.653 1946104.251 15908034.997 10 0 59660 42300.00000 0 -21650419.434 1706494.708 13383031.405 10 0 59660 43200.00000 0 -23145225.796 1657832.552 10598120.960 10 0 59660 44100.00000 0 -24286182.412 1757294.154 7607382.919 10 0 59660 45000.00000 0 -25039830.962 1954660.726 4468897.198 10 0 59660 45900.00000 0 -25385512.987 2194674.177 1243616.296 10 0 59660 46800.00000 0 -25316177.609 2419609.648 -2005819.396 10 0 59660 47700.00000 0 -24838637.296 2571955.391 -5216299.589 10 0 59660 48600.00000 0 -23973260.951 2597086.030 -8325471.415 10 0 59660 49500.00000 0 -22753117.298 2445815.455 -11272951.891 10 0 59660 50400.00000 0 -21222604.837 2076720.814 -14001501.510 10 0 59660 51300.00000 0 -19435625.890 1458138.661 -16458136.001 10 0 59660 52200.00000 0 -17453381.532 569748.224 -18595154.567 10 0 59660 53100.00000 0 -15341879.865 -596325.671 -20371064.668 10 0 59660 54000.00000 0 -13169261.860 -2034937.468 -21751385.693 10 0 59660 54900.00000 0 -11003056.415 -3727898.628 -22709316.306 10 0 59660 55800.00000 0 -8907478.995 -5644510.257 -23226252.917 10 0 59660 56700.00000 0 -6940886.084 -7742629.466 -23292149.656 10 0 59660 57600.00000 0 -5153490.970 -9970226.074 -22905713.176 10 0 59660 58500.00000 0 -3585435.435 -12267365.736 -22074428.642 10 0 59660 59400.00000 0 -2265296.909 -14568537.887 -20814416.404 10 0 59660 60300.00000 0 -1209092.505 -16805232.377 -19150121.840 10 0 59660 61200.00000 0 -419820.707 -18908658.071 -17113844.039 10 0 59660 62100.00000 0 112441.036 -20812490.606 -14745111.947 10 0 59660 63000.00000 0 409887.779 -22455534.972 -12089919.538 10 0 59660 63900.00000 0 505815.594 -23784191.728 -9199834.426 10 0 59660 64800.00000 0 442977.277 -24754623.713 -6130996.906 10 0 59660 65700.00000 0 271535.276 -25334532.331 -2943028.674 10 0 59660 66600.00000 0 46699.005 -25504468.698 302127.399 10 0 59660 67500.00000 0 -173852.836 -25258624.422 3541413.627 10 0 59660 68400.00000 0 -332655.109 -24605068.648 6711886.151 10 0 59660 69300.00000 0 -375129.981 -23565421.321 9751941.336 10 0 59660 70200.00000 0 -252137.593 -22173976.443 12602515.601 10 0 59660 71100.00000 0 77705.012 -20476312.243 15208234.915 10 0 59660 72000.00000 0 646035.457 -18527446.785 17518491.263 10 0 59660 72900.00000 0 1473172.837 -16389616.547 19488425.101 10 0 59660 73800.00000 0 2567026.840 -14129771.079 21079794.857 10 0 59660 74700.00000 0 3922535.854 -11816888.642 22261716.857 10 0 59660 75600.00000 0 5521658.501 -9519224.781 23011261.794 10 0 59660 76500.00000 0 7333919.801 -7301608.341 23313896.688 10 0 59660 77400.00000 0 9317489.963 -5222897.169 23163764.216 10 0 59660 78300.00000 0 11420751.578 -3333698.819 22563794.423 10 0 59660 79200.00000 0 13584290.691 -1674450.290 21525646.868 10 0 59660 80100.00000 0 15743229.412 -273935.895 20069484.378 10 0 59660 81000.00000 0 17829803.524 851696.077 18223582.676 10 0 59660 81900.00000 0 19776078.194 1699377.996 16023783.114 10 0 59660 82800.00000 0 21516688.811 2279011.333 13512798.798 10 0 59660 83700.00000 0 22991492.870 2612804.725 10739387.121 10 0 59660 84600.00000 0 24148022.059 2734090.444 7757404.364 10 0 59660 85500.00000 0 24943632.046 2685670.044 4624760.550 10 0 59661 0.00000 0 25347259.767 2517759.713 1402294.991 10 0 59661 900.00000 0 25340714.461 2285622.732 -1847407.315 10 0 59661 1800.00000 0 24919447.712 2046989.978 -5061230.801 10 0 59661 2700.00000 0 24092770.581 1859377.908 -8176757.838 10 0 59661 3600.00000 0 22883507.999 1777418.287 -11133482.111 10 0 59661 4500.00000 0 21327105.119 1850313.142 -13873984.576 10 0 59661 5400.00000 0 19470223.005 2119523.102 -16345048.708 10 0 59661 6300.00000 0 17368882.404 2616787.392 -18498693.275 10 0 59661 7200.00000 0 15086233.209 3362559.676 -20293102.622 10 0 59661 8100.00000 0 12690042.758 4364926.338 -21693436.673 10 0 59661 9000.00000 0 10250007.575 5619053.556 -22672505.302 10 0 59661 9900.00000 0 7835000.404 7107187.193 -23211294.383 10 0 59661 10800.00000 0 5510366.737 8799206.535 -23299333.721 10 0 59661 11700.00000 0 3335382.772 10653709.693 -22934900.070 10 0 59661 12600.00000 0 1360979.973 12619586.295 -22125051.428 10 0 59661 13500.00000 0 -372169.926 14638012.785 -20885491.940 10 0 59661 14400.00000 0 -1835130.590 16644787.894 -19240269.785 10 0 59661 15300.00000 0 -3011676.790 18572911.505 -17221313.538 10 0 59661 16200.00000 0 -3898730.405 20355299.743 -14867815.514 10 0 59661 17100.00000 0 -4506239.451 21927523.177 -12225473.487 10 0 59661 18000.00000 0 -4856506.109 23230453.639 -9345605.114 10 0 59661 18900.00000 0 -4982992.940 24212708.761 -6284151.875 10 0 59661 19800.00000 0 -4928658.419 24832791.488 -3100591.736 10 0 59661 20700.00000 0 -4743892.835 25060834.379 143218.227 10 0 59661 21600.00000 0 -4484142.556 24879875.040 3384246.471 10 0 59661 22500.00000 0 -4207323.965 24286608.683 6559515.085 10 0 59661 23400.00000 0 -3971137.204 23291585.804 9607326.864 10 0 59661 24300.00000 0 -3830394.224 21918846.430 12468466.977 10 0 59661 25200.00000 0 -3834474.864 20205006.103 15087355.478 10 0 59661 26100.00000 0 -4025019.229 18197831.865 17413127.840 10 0 59661 27000.00000 0 -4433954.453 15954367.920 19400622.495 10 0 59661 27900.00000 0 -5081939.746 13538689.315 21011256.291 10 0 59661 28800.00000 0 -5977295.791 11019377.503 22213771.130 10 0 59661 29700.00000 0 -7115464.150 8466822.952 22984837.751 10 0 59661 30600.00000 0 -8479020.048 5950466.849 23309505.472 10 0 59661 31500.00000 0 -10038238.624 3536096.369 23181489.594 10 0 59661 32400.00000 0 -11752191.711 1283305.345 22603291.355 10 0 59661 33300.00000 0 -13570329.960 -756774.885 21586148.314 10 0 59661 34200.00000 0 -15434484.880 -2543380.890 20149816.193 10 0 59661 35100.00000 0 -17281207.797 -4047580.666 18322186.308 10 0 59661 36000.00000 0 -19044348.550 -5253235.372 16138745.694 10 0 59661 36900.00000 0 -20657766.548 -6157420.309 13641890.035 10 0 59661 37800.00000 0 -22058061.010 -6770288.721 10880102.350 10 0 59661 38700.00000 0 -23187206.277 -7114385.317 7907012.929 10 0 59661 39600.00000 0 -23994981.631 -7223439.355 4780358.604 10 0 59661 40500.00000 0 -24441093.514 -7140689.081 1560861.438 10 0 59661 41400.00000 0 -24496900.921 -6916809.111 -1688951.386 10 0 59661 42300.00000 0 -24146670.951 -6607528.911 -4905963.220 10 0 59661 43200.00000 0 -23388311.361 -6271043.804 -8027695.275 10 0 59661 44100.00000 0 -22233549.072 -5965328.585 -10993521.424 10 0 59661 45000.00000 0 -20707546.665 -5745467.911 -13745846.462 10 0 59661 45900.00000 0 -18847972.696 -5661116.829 -16231224.748 10 0 59661 46800.00000 0 -16703564.423 -5754199.216 -18401397.427 10 0 59661 47700.00000 0 -14332242.780 -6056941.739 -20214228.083 10 0 59661 48600.00000 0 -11798858.093 -6590326.713 -21634518.978 10 0 59661 49500.00000 0 -9172660.168 -7363029.556 -22634692.381 10 0 59661 50400.00000 0 -6524597.834 -8370886.113 -23195324.132 10 0 59661 51300.00000 0 -3924559.777 -9596912.903 -23305519.575 10 0 59661 52200.00000 0 -1438670.763 -11011880.271 -22963124.826 10 0 59661 53100.00000 0 873244.961 -12575415.215 -22174769.447 10 0 59661 54000.00000 0 2959928.509 -14237588.636 -20955739.687 10 0 59661 54900.00000 0 4780586.095 -15940921.393 -19329684.493 10 0 59661 55800.00000 0 6306345.415 -17622725.948 -17328159.644 10 0 59661 56700.00000 0 7521208.959 -19217686.161 -14990018.345 10 0 59661 57600.00000 0 8422465.403 -20660567.610 -12360659.566 10 0 59661 58500.00000 0 9020542.757 -21888944.932 -9491148.302 10 0 59661 59400.00000 0 9338310.487 -22845831.755 -6437224.483 10 0 59661 60300.00000 0 9409860.830 -23482102.521 -3258219.585 10 0 59661 61200.00000 0 9278821.582 -23758603.952 -15902.166 10 0 59661 62100.00000 0 8996272.415 -23647866.877 3226725.030 10 0 59661 63000.00000 0 8618353.640 -23135345.784 6406652.617 10 0 59661 63900.00000 0 8203669.300 -22220133.393 9462092.238 10 0 59661 64800.00000 0 7810595.215 -20915119.663 12333680.080 10 0 59661 65700.00000 0 7494606.546 -19246588.068 14965632.321 10 0 59661 66600.00000 0 7305738.438 -17253265.763 17306829.728 10 0 59661 67500.00000 0 7286287.603 -14984867.116 19311810.224 10 0 59661 68400.00000 0 7468852.253 -12500191.284 20941650.275 10 0 59661 69300.00000 0 7874793.441 -9864853.098 22164718.206 10 0 59661 70200.00000 0 8513182.907 -7148741.610 22957285.291 10 0 59661 71100.00000 0 9380282.095 -4423311.712 23303983.282 10 0 59661 72000.00000 0 10459574.576 -1758821.119 23198099.917 10 0 59661 72900.00000 0 11722350.981 778373.100 22641707.148 10 0 59661 73800.00000 0 13128822.463 3128346.898 21645619.793 10 0 59661 74700.00000 0 14629716.524 5239866.082 20229185.529 10 0 59661 75600.00000 0 16168288.948 7072274.820 18419910.152 10 0 59661 76500.00000 0 17682668.075 8596938.300 16252925.100 10 0 59661 77400.00000 0 19108433.566 9798180.488 13770307.222 10 0 59661 78300.00000 0 20381321.879 10673679.007 11020263.587 10 0 59661 79200.00000 0 21439945.073 11234301.793 8056196.745 10 0 59661 80100.00000 0 22228408.726 11503393.411 4935668.422 10 0 59661 81000.00000 0 22698718.847 11515542.162 1719281.618 10 0 59661 81900.00000 0 22812876.233 11314880.829 -1530497.130 10 0 59661 82800.00000 0 22544569.698 10952993.506 -4750552.171 10 0 59661 83700.00000 0 21880396.533 10486517.752 -7878345.970 10 0 59661 84600.00000 0 20820558.083 9974543.911 -10853134.986 10 0 59661 85500.00000 0 19379000.762 9475922.162 -13617150.155 10 0 59662 0.00000 0 17582996.273 9046591.584 -16116718.676 10 0 59662 900.00000 0 15472176.853 8737044.189 -18303306.507 10 0 59662 1800.00000 0 13097067.954 8590031.833 -20134458.060 10 0 59662 2700.00000 0 10517175.894 8638612.220 -21574619.587 10 0 59662 3600.00000 0 7798712.001 8904617.167 -22595827.219 10 0 59662 4500.00000 0 5012046.661 9397607.662 -23178248.074 10 0 59662 5400.00000 0 2228998.662 10114360.029 -23310564.124 10 0 59662 6300.00000 0 -479928.185 11038905.253 -22990191.679 10 0 59662 7200.00000 0 -3048247.016 12143120.343 -22223332.394 10 0 59662 8100.00000 0 -5416017.051 13387847.554 -21024854.794 10 0 59662 9000.00000 0 -7532095.663 14724495.202 -19418008.383 10 0 59662 9900.00000 0 -9356020.477 16097053.530 -17433975.540 10 0 59662 10800.00000 0 -10859444.071 17444441.641 -15111269.389 10 0 59662 11700.00000 0 -12027062.312 18703087.397 -12494988.782 10 0 59662 12600.00000 0 -12856998.387 19809632.111 -9635944.445 10 0 59662 13500.00000 0 -13360627.390 20703646.368 -6589672.870 10 0 59662 14400.00000 0 -13561849.738 21330242.489 -3415356.949 10 0 59662 15300.00000 0 -13495844.877 21642473.253 -174674.408 10 0 59662 16200.00000 0 -13207358.682 21603415.257 3069403.301 10 0 59662 17100.00000 0 -12748597.723 21187848.493 6253837.951 10 0 59662 18000.00000 0 -12176820.139 20383460.640 9316752.821 10 0 59662 18900.00000 0 -11551725.735 19191524.680 12198637.976 10 0 59662 19800.00000 0 -10932756.293 17627020.597 14843508.644 10 0 59662 20700.00000 0 -10376420.764 15718195.468 17199993.795 10 0 59662 21600.00000 0 -9933758.764 13505579.817 19222333.682 10 0 59662 22500.00000 0 -9648049.726 11040500.872 20871267.089 10 0 59662 23400.00000 0 -9552864.511 8383154.444 22114791.256 10 0 59662 24300.00000 0 -9670541.657 5600315.365 22928780.215 10 0 59662 25200.00000 0 -10011152.438 2762781.312 23297450.022 10 0 59662 26100.00000 0 -10571998.316 -57344.151 23213662.315 10 0 59662 27000.00000 0 -11337662.014 -2789417.081 22679060.742 10 0 59662 27900.00000 0 -12280610.240 -5366953.129 21704037.863 10 0 59662 28800.00000 0 -13362322.999 -7730150.565 20307533.227 10 0 59662 29700.00000 0 -14534902.437 -9828132.495 18516666.474 10 0 59662 30600.00000 0 -15743094.027 -11620816.017 16366212.259 10 0 59662 31500.00000 0 -16926635.536 -13080331.420 13897926.897 10 0 59662 32400.00000 0 -18022835.348 -14191933.347 11159739.342 10 0 59662 33300.00000 0 -18969271.937 -14954366.914 8204821.851 10 0 59662 34200.00000 0 -19706500.832 -15379674.427 5090558.159 10 0 59662 35100.00000 0 -20180655.082 -15492451.923 1877429.071 10 0 59662 36000.00000 0 -20345829.338 -15328587.733 -1372162.864 10 0 59662 36900.00000 0 -20166146.656 -14933537.026 -4595106.468 10 0 59662 37800.00000 0 -19617420.402 -14360205.917 -7728809.034 10 0 59662 38700.00000 0 -18688340.476 -13666535.065 -10712413.211 10 0 59662 39600.00000 0 -17381133.404 -12912885.454 -13487979.660 10 0 59662 40500.00000 0 -15711667.663 -12159337.107 -16001612.296 10 0 59662 41400.00000 0 -13708999.095 -11463015.142 -18204504.215 10 0 59662 42300.00000 0 -11414374.718 -10875556.107 -20053883.985 10 0 59662 43200.00000 0 -8879735.706 -10440821.552 -21513844.206 10 0 59662 44100.00000 0 -6165781.293 -10192955.142 -22556036.646 10 0 59662 45000.00000 0 -3339673.541 -10154865.117 -23160220.792 10 0 59662 45900.00000 0 -472477.676 -10337195.917 -23314655.659 10 0 59662 46800.00000 0 2363556.447 -10737832.284 -23016327.513 10 0 59662 47700.00000 0 5097759.571 -11341956.831 -22271009.267 10 0 59662 48600.00000 0 7663740.939 -12122658.945 -21093150.372 10 0 59662 49500.00000 0 10001907.691 -13042069.805 -19505599.117 10 0 59662 50400.00000 0 12061701.680 -14052976.233 -17539162.344 10 0 59662 51300.00000 0 13803461.496 -15100845.969 -15232010.647 10 0 59662 52200.00000 0 15199832.863 -16126179.530 -12628940.046 10 0 59662 53100.00000 0 16236669.201 -17067089.883 -9780504.040 10 0 59662 54000.00000 0 16913385.545 -17862001.336 -6742032.553 10 0 59662 54900.00000 0 17242751.745 -18452353.737 -3572556.607 10 0 59662 55800.00000 0 17250134.441 -18785197.577 -333659.765 10 0 59662 56700.00000 0 16972220.559 -18815569.972 2911721.130 10 0 59662 57600.00000 0 16455276.950 -18508550.592 6100522.210 10 0 59662 58500.00000 0 15753020.411 -17840910.025 9170781.379 10 0 59662 59400.00000 0 14924188.765 -16802280.257 12062845.283 10 0 59662 60300.00000 0 14029916.252 -15395797.101 14720530.549 10 0 59662 61200.00000 0 13131024.601 -13638186.753 17092216.303 10 0 59662 62100.00000 0 12285344.524 -11559292.078 19131846.665 10 0 59662 63000.00000 0 11545180.842 -9201057.668 20799823.835 10 0 59662 63900.00000 0 10955028.147 -6616015.514 22063774.640 10 0 59662 64800.00000 0 10549633.108 -3865333.808 22899176.103 10 0 59662 65700.00000 0 10352484.754 -1016509.480 23289828.418 10 0 59662 66600.00000 0 10374795.992 1859200.104 23228166.572 10 0 59662 67500.00000 0 10615018.864 4689500.285 22715405.029 10 0 59662 68400.00000 0 11058913.753 7403824.761 21761512.908 10 0 59662 69300.00000 0 11680169.480 9936029.604 20385020.214 10 0 59662 70200.00000 0 12441548.206 12226904.612 18612658.819 10 0 59662 71100.00000 0 13296507.104 14226398.473 16478844.840 10 0 59662 72000.00000 0 14191228.685 15895465.976 14025012.163 10 0 59662 72900.00000 0 15066974.483 17207461.191 11298809.639 10 0 59662 73800.00000 0 15862663.019 18149019.357 8353177.135 10 0 59662 74700.00000 0 16517563.422 18720391.498 5245318.211 10 0 59662 75600.00000 0 16973991.009 18935218.676 2035589.213 10 0 59662 76500.00000 0 17179890.788 18819756.191 -1213673.599 10 0 59662 77400.00000 0 17091199.522 18411581.242 -4439365.837 10 0 59662 78300.00000 0 16673886.064 17757839.171 -7578841.883 10 0 59662 79200.00000 0 15905583.225 16913102.890 -10571132.746 10 0 59662 80100.00000 0 14776741.704 15936936.413 -13358130.821 10 0 59662 81000.00000 0 13291256.634 14891265.639 -15885718.376 10 0 59662 81900.00000 0 11466539.523 13837667.557 -18104817.747 10 0 59662 82800.00000 0 9333031.583 12834692.235 -19972342.888 10 0 59662 83700.00000 0 6933177.893 11935330.413 -21452034.056 10 0 59662 84600.00000 0 4319904.199 11184733.127 -22515159.784 10 0 59662 85500.00000 0 1554659.031 10618279.080 -23141072.889 99